Dr. Bill's Marine Weather

Coastal Marine Forecast

       Alabama   Florida   Louisiana   Mississippi

Printer Friendly AL  FL  LA  MS

Data Buoys:   Western Gulf of Mexico    Eastern Gulf of Mexico
**********************************************************************
  Alabama
500 AM CDT TUE MAY 03 2016

ALZ051>064-031100-
SOUTHWEST ALABAMA
  
CITY           SKY/WX    TMP DP  RH WIND       PRES   REMARKS
MOBILE         FOG       70  70 100 CALM      29.91S VSB 1/2          
BROOKLEY FIELD CLOUDY    69  69 100 CALM      29.92S FOG              
EVERGREEN      CLOUDY    67  65  93 CALM      29.92S FOG              
**********************************************************************
  Florida
600 AM EDT TUE MAY 03 2016

FLZ001>010-012>015-112-114-115-031100-
PANHANDLE FLORIDA
  
CITY           SKY/WX    TMP DP  RH WIND       PRES   REMARKS
PENSACOLA      PTCLDY    69  66  90 CALM      29.90S                  
MILTON NAS     LGT RAIN  64  64 100 CALM      29.91                   
CRESTVIEW      FOG       65  64  97 CALM      29.92S VSB 1/2          
DUKE FIELD     FAIR      66  65  96 CALM      29.90S                  
VALPARAISO     PTCLDY    70  68  94 CALM      29.90F                  
MARY ESTHER    PTCLDY    70  69  95 CALM      29.89F                  
PANAMA CITY    FOG       68  67  96 CALM      29.90R VSB 1/2          
TYNDALL AFB    CLEAR     74  72  92 W5        29.91R                  
APALACHICOLA   CLEAR     71  71 100 CALM      29.90S                  

STATION/POSITION SKY/WX   TEMP    WIND        PRES    WAVE   SWELL
                          AIR SEA DIR/SP/G            HT/PER HT/PER
                          (F)     (DEG/KT/KT) (MB)    (FT/S) (FT/S)
30.1N   87.6W              75 76  230/  4/  6 1011.5F   2/ 7   2/ 7
29.2N   88.2W              75 76     CALM     1012.5R
28.8N   86.0W              77 78  230/  8/ 10 1013.3R   2/ 7   2/ 7
PANAMA CITY BEAC           76 79  250/  9/ 12 1012.9F
TOWER C                    75     250/  8/  8 1013.6R
28.5N   84.5W              76 76  200/  4/  4 1012.8R   2/ 6   2/ 6

**********************************************************************
  Louisiana
500 AM CDT TUE MAY 03 2016

LAZ040-048-061>063-065-066-069-031100-
SOUTHEAST LOUISIANA
  
CITY           SKY/WX    TMP DP  RH WIND       PRES   REMARKS
N.O. AUDUBON     N/A     70  70 100 MISG        N/A                   
N.O. INTL ARPT CLOUDY    71  68  90 N9        29.91S                  
N.O. LAKEFRONT MOCLDY    66  32  28 N16       29.92R                  
N.O. DOWNTOWN* CLOUDY    71  68  90 N6        29.92R                  
RESERVE*       CLOUDY    69  67  93 N7        29.92R                  
SLIDELL        CLOUDY    67  67 100 N8        29.91R FOG              
BATON ROUGE    CLOUDY    65  62  90 NW7       29.94S                  
BOOTHVILLE     CLOUDY    72  70  93 NW3       29.91R FOG              
BELLE CHASSE   PTCLDY    69  68  96 N5        29.90S                  
BOGALUSA*      CLOUDY    69  65  89 N7        29.94R                  
GALLIANO*      MOSUNNY   65  64  96 CALM      29.90S                  
NEW ROADS*     CLOUDY    64  61  91 N7        29.96S                  
GONZALES*      CLOUDY    66  66 100 N7        29.92S                  
HAMMOND*       CLOUDY    68  64  88 N6        29.93R                  
HOUMA*           N/A     68  67  99 N8        29.91S FOG              
PORT FOURCHON* CLOUDY    73  70  88 N6        29.91R                  

**********************************************************************
  Mississippi
500 AM CDT TUE MAY 03 2016

MSZ080>082-031100-
COASTAL MISSISSIPPI
  
CITY           SKY/WX    TMP DP  RH WIND       PRES   REMARKS
BILOXI         FOG       69  69 100 CALM      29.90R VSB 1/2          
PASCAGOULA     CLOUDY    71  71 100 NW3       29.90S FOG              
GULFPORT       FOG       69  69 100 CALM      29.89S VSB 1/4          
About Us | Coastal Marine Forecast | Offshore Marine Forecast
Gulf Coast Tides | Hourly Weather Observations | Weather Radar
Sea Surface Temperatures | Solar/Lunar Data | Hurricane Advisories | Home
     
USA Logo Dr. Bill's Marine Weather
Last date changed: December 9, 2014 4:08 PM
www.gulfmarineweather.com/hourlyweatherobservations.shtml
Contact Us